Regional Weather Roundup
Issued by NWS Albany, NY

Home | Current Version | Previous Version | Graphics & Text | Print | Product List | Glossary Off
Versions: 1 2 3 4 5 6 7 8 9 10 11 12 13 14 15 16 17 18 19 20 21 22 23 24 25 26 27 28 29 30 31 32 33 34 35 36 37 38 39 40 41 42 43 44 45 46 47 48 49 50

000
ASUS41 KALY 011810
RWRALY

NEW YORK STATE HOURLY WEATHER ROUNDUP
NATIONAL WEATHER SERVICE ALBANY NY
200 PM EDT WED OCT 01 2014

NOTE: "FAIR" INDICATES FEW OR NO CLOUDS BELOW 12,000 FEET WITH NO
SIGNIFICANT WEATHER AND/OR NO OBSTRUCTIONS TO VISIBILITY.

NYZ032-033-038>043-046>054-057>066-NYZ062>081-011900-
EAST


CITY           SKY/WX    TMP DP  RH WIND       PRES   REMARKS
ALBANY         CLOUDY    62  57  83 N8        30.09F
GLENS FALLS    PTSUNNY   66  53  63 NE6       30.08F
POUGHKEEPSIE   CLOUDY    63  59  87 N6        30.05F
NEWBURGH       CLOUDY    61  61 100 VRB6      30.07F FOG
MONTGOMERY       N/A     63  59  87 NE8       30.06F
WHITE PLAINS   DRIZZLE   62  58  86 N7        30.03F FOG
ISLIP          DRIZZLE   62  58  86 NE9       30.00F FOG
NEW YORK CITY  CLOUDY    64  59  83 N10       30.03F
CENTRAL PARK   CLOUDY    63  58  83 VRB7      30.06F
$$

NYZ005>009-017-018-044>046-055-056-011900-
CENTRAL


CITY           SKY/WX    TMP DP  RH WIND       PRES   REMARKS
FULTON         PTSUNNY   71  60  68 W8        30.05F
SYRACUSE       PTSUNNY   73  59  61 NE6       30.04F
ROME           CLOUDY    68  57  68 SE10      30.07F
ELMIRA         CLOUDY    68  59  73 CALM      30.05F
BINGHAMTON     PTSUNNY   66  58  75 SE8       30.06F
MONTICELLO     CLOUDY    61  57  88 NE7       30.09F
$$

NYZ026>034-041>043-011900-
NORTH


CITY           SKY/WX    TMP DP  RH WIND       PRES   REMARKS
WATERTOWN      SUNNY     71  56  58 N9        30.06F
FORT DRUM      NOT AVBL
MASSENA        PTSUNNY   60  53  77 NE12      30.12F
SARANAC LAKE   PTSUNNY   64  53  67 E10       30.09F
PLATTSBURGH    CLOUDY    56  51  84 N5        30.13F
$$

NYZ001>004-010>016-019>021-011900-
WEST


CITY           SKY/WX    TMP DP  RH WIND       PRES   REMARKS
NIAGARA FALLS  CLOUDY    63  58  83 E10       30.06F
BUFFALO        CLOUDY    65  58  78 NE8       30.06F
DUNKIRK        CLOUDY    70  58  65 CALM      30.04F
JAMESTOWN      PTSUNNY   63  55  77 CALM      30.06F
WELLSVILLE     PTSUNNY   63  56  78 SE8       30.09F
ROCHESTER      CLOUDY    67  59  75 VRB5      30.07F
PENN YAN       MOSUNNY   67  50  55 VRB3      30.07F
$$

             KEY
       WCI = WIND CHILL INDEX
       VSB = VISIBILITY
       HX  = HEAT INDEX
$$


USA.gov is the U.S. government's official web portal to all federal, state and local government web resources and services.